MCMWTC BRIDGEPORT, CA, CA

11:35 AM PDT on April 23, 2017 (GMT -0700)
MCMWTC BRIDGEPORT, CA

Weather History for KBAN - January, 2014

Change the Weather History Date:

Monday, January 20, 2014

  Actual Average (KTVL) Record (KTVL)
Temperature  
Mean Temperature 32 °F 30 °F  
Max Temperature 55 °F 43 °F 56 °F (1985)
Min Temperature 9 °F 16 °F -4 °F (1990)
Degree Days  
Heating Degree Days 33 35  
Month to date heating degree days 707  
Since 1 July heating degree days 3890  
Cooling Degree Days 0 0  
Month to date cooling degree days 0  
Year to date cooling degree days 0  
Moisture  
Dew Point 2 °F    
Average Humidity 41    
Maximum Humidity 67    
Minimum Humidity 9    
Precipitation  
Precipitation 0.00 in - 3.63 in (1943)
Month to date precipitation  
Year to date precipitation  
Sea Level Pressure  
Sea Level Pressure 30.40 in    
Wind  
Wind Speed 1 mph (ENE)    
Max Wind Speed 9 mph    
Max Gust Speed -    
Visibility 10 miles    
Events      
T = Trace of Precipitation, MM = Missing Value Source: NWS Daily Summary

Daily Weather History Graph

Daily Weather History Graph

Search for Another Location

Airport or City:

Trip Planner

Search our weather history database for the weather conditions in past years. The results will help you decide how hot, cold, wet, or windy it might be!

Date:

Astronomy

Jan. 20, 2014 Rise Set
Actual Time 7:11 AM PST 5:07 PM PST
Civil Twilight 6:42 AM PST 5:35 PM PST
Nautical Twilight 6:10 AM PST 6:08 PM PST
Astronomical Twilight 5:39 AM PST 6:39 PM PST
Moon 9:42 PM PST (1/20) 9:17 AM PST (1/20)
Length of Visible Light 10h 52m
Length of Day
9h 55m
Waning Gibbous, 82% of the Moon is Illuminated
Jan 20
Waning Gibbous
Jan 23
Last Quarter
Jan 30
New
Feb 6
First Quarter
Feb 14
Full

Hourly Weather History & Observations

Time (PST) Temp. Windchill Dew Point Humidity Pressure Visibility Wind Dir Wind Speed Gust Speed Precip Events Conditions
12:52 AM 17.1 °F - 3.0 °F 54% 30.27 in 10.0 mi Calm Calm - N/A   Clear
1:52 AM 15.1 °F - 3.0 °F 59% 30.28 in 10.0 mi Calm Calm - N/A   Clear
3:52 AM 12.0 °F - 1.0 °F 61% 30.33 in 10.0 mi Calm Calm - N/A   Clear
4:52 AM 10.9 °F - 1.0 °F 64% 30.38 in 10.0 mi Calm Calm - N/A   Clear
5:52 AM 10.0 °F - 1.0 °F 67% 30.44 in 8.0 mi Calm Calm - N/A   Clear
6:52 AM 9.0 °F - -0.0 °F 67% 30.48 in 10.0 mi Calm Calm - N/A   Clear
7:52 AM 12.9 °F - 3.0 °F 65% 30.49 in 10.0 mi Calm Calm - N/A   Clear
8:52 AM 19.9 °F - 7.0 °F 57% 30.47 in 10.0 mi Calm Calm - N/A   Clear
9:52 AM 30.9 °F - 7.0 °F 37% 30.44 in 10.0 mi Calm Calm - N/A   Clear
10:52 AM 43.0 °F - 6.1 °F 22% 30.38 in 10.0 mi Calm Calm - N/A   Clear
12:52 PM 54.0 °F - -0.9 °F 11% 30.27 in 10.0 mi SSE 3.5 mph - N/A   Clear
1:52 PM 55.9 °F - -2.0 °F 9% 30.26 in 10.0 mi ENE 9.2 mph - N/A   Clear
2:52 PM 55.9 °F - -0.9 °F 10% 30.26 in 10.0 mi Variable 6.9 mph - N/A   Clear
3:52 PM 55.0 °F - -2.9 °F 9% 30.29 in 10.0 mi Variable 3.5 mph - N/A   Clear
4:52 PM 44.1 °F 42.5 °F 1.9 °F 17% 30.37 in 10.0 mi Variable 3.5 mph - N/A   Clear
5:52 PM 35.1 °F 31.0 °F 3.0 °F 26% 30.45 in 10.0 mi NNW 4.6 mph - N/A   Clear
6:52 PM 30.9 °F - 3.9 °F 32% 30.51 in 10.0 mi Calm Calm - N/A   Clear
7:52 PM 28.0 °F - 3.9 °F 36% 30.51 in 10.0 mi Calm Calm - N/A   Clear
8:52 PM 24.1 °F - 3.0 °F 40% 30.52 in 10.0 mi Calm Calm - N/A   Clear
9:52 PM 21.0 °F - 3.9 °F 48% 30.50 in 10.0 mi Calm Calm - N/A   Clear
10:52 PM 19.9 °F - 5.0 °F 52% 30.45 in 10.0 mi Calm Calm - N/A   Clear
11:52 PM 18.0 °F - 3.9 °F 54% 30.41 in 10.0 mi Calm Calm - N/A   Clear